TimePDT,TemperatureF,Dew PointF,Humidity,Sea Level PressureIn,VisibilityMPH,Wind Direction,Wind SpeedMPH,Gust SpeedMPH,PrecipitationIn,Events,Conditions,WindDirDegrees,DateUTC
12:52 AM,79.0,52.0,39,29.60,10.0,WSW,5.8,-,N/A,,Clear,250,2013-09-22 07:52:00
1:52 AM,79.0,48.0,34,29.60,10.0,SW,12.7,-,N/A,,Clear,230,2013-09-22 08:52:00
2:52 AM,77.0,52.0,42,29.59,10.0,SW,9.2,-,N/A,,Clear,230,2013-09-22 09:52:00
3:52 AM,75.0,53.1,46,29.61,10.0,WNW,10.4,-,N/A,,Clear,290,2013-09-22 10:52:00
4:20 AM,73.4,44.6,36,29.63,10.0,North,16.1,-,N/A,,Clear,10,2013-09-22 11:20:00
4:52 AM,72.0,44.1,37,29.63,10.0,WNW,5.8,-,N/A,,Clear,290,2013-09-22 11:52:00
5:52 AM,72.0,44.1,37,29.66,10.0,NNW,8.1,-,N/A,,Clear,330,2013-09-22 12:52:00
6:52 AM,69.1,46.0,44,29.69,10.0,SW,3.5,-,N/A,,Clear,220,2013-09-22 13:52:00
7:52 AM,73.0,45.0,37,29.71,10.0,Calm,Calm,-,N/A,,Clear,0,2013-09-22 14:52:00
8:52 AM,75.0,43.0,32,29.73,10.0,Calm,Calm,-,N/A,,Clear,0,2013-09-22 15:52:00
9:52 AM,78.1,41.0,27,29.74,10.0,West,4.6,-,N/A,,Clear,260,2013-09-22 16:52:00
10:52 AM,82.0,30.9,16,29.72,10.0,NNW,9.2,17.3,N/A,,Clear,340,2013-09-22 17:52:00
11:52 AM,82.9,30.9,15,29.71,10.0,Variable,6.9,-,N/A,,Clear,0,2013-09-22 18:52:00
12:52 PM,86.0,30.9,14,29.70,10.0,North,11.5,-,N/A,,Clear,350,2013-09-22 19:52:00
1:52 PM,87.1,33.1,15,29.68,10.0,North,10.4,21.9,N/A,,Clear,350,2013-09-22 20:52:00
2:52 PM,87.1,30.0,13,29.67,10.0,NW,11.5,-,N/A,,Clear,320,2013-09-22 21:52:00
3:52 PM,87.1,30.9,13,29.67,10.0,North,9.2,18.4,N/A,,Clear,360,2013-09-22 22:52:00
4:52 PM,88.0,28.0,12,29.66,10.0,NNW,15.0,23.0,N/A,,Clear,340,2013-09-22 23:52:00
5:52 PM,86.0,27.0,12,29.67,10.0,NNW,15.0,-,N/A,,Clear,340,2013-09-23 00:52:00
6:52 PM,82.9,28.9,14,29.68,10.0,NNW,11.5,-,N/A,,Clear,330,2013-09-23 01:52:00
7:52 PM,81.0,30.0,16,29.69,10.0,NNW,11.5,-,N/A,,Clear,330,2013-09-23 02:52:00
8:52 PM,78.1,30.9,18,29.72,10.0,NNW,8.1,-,N/A,,Clear,340,2013-09-23 03:52:00
9:52 PM,75.0,30.9,20,29.73,10.0,NNW,5.8,-,N/A,,Clear,340,2013-09-23 04:52:00
10:52 PM,75.9,30.9,19,29.74,10.0,NNW,10.4,-,N/A,,Clear,340,2013-09-23 05:52:00
11:52 PM,73.0,30.9,21,29.75,10.0,WNW,6.9,-,N/A,,Clear,300,2013-09-23 06:52:00